SCP
0 1 2 1 0 0 0 0 0 0 -0 -0 -1 -0 -0 -0 -0 -0 -0 -0 -0 -0 -0 -0 -0 -0 -0 -0 -0 -0 -0 -0 -0 -0 -0 -0 -0 -0 -0 -0 -0 -0 -0
0 1 1 1 1 1 1 1 1 1 0 0 -0 -0 -0 -0 -0 -0 -0 -0 -0 -0 -0 -0 -0 -0 -0 -0 -0 -0 -0 -0 -0 -0 -0 -0 -0 -0 -0 -0 -0 0 -0
0 0 1 1 1 1 1 1 1 1 1 0 0 0 -0 -0 -0 -0 -0 -0 -0 -0 -0 -0 -0 -0 -0 -0 -0 -0 -0 -0 -0 -0 -0 0 -0 -0 -0 -0 -0 -0 -0
0 0 0 1 1 1 1 1 1 1 1 0 0 0 0 -0 -0 -0 -0 -0 -0 -0 -0 -0 -0 -0 -0 -0 -0 -0 -0 -0 -0 -0 0 0 -0 -0 -0 -0 -0 -0 -0
0 0 0 1 1 1 1 1 1 1 1 0 0 0 0 0 -0 -0 -0 -0 -0 -0 -0 -0 -0 -0 -0 -0 -0 -0 -0 -0 -0 -0 0 0 -0 0 0 0 0 0 0
0 1 1 1 1 0 1 1 1 1 1 1 0 0 0 0 0 0 -0 -0 -0 -0 -0 -0 -0 -0 -0 -0 -0 -0 -0 -0 -0 0 0 0 -0 0 0 0 0 0 0
0 0 1 1 1 1 0 0 1 1 1 1 1 0 0 0 0 0 0 -0 -0 -0 -0 -0 -0 -0 -0 -0 -0 -0 -0 -0 0 0 0 -0 -0 0 0 0 0 0 0
1 1 1 0 0 1 1 0 0 1 1 1 1 0 0 0 0 0 0 0 -0 0 0 0 -0 0 0 0 -0 -0 -0 0 0 0 0 -0 0 0 0 0 0 0 0
0 1 1 1 0 0 0 1 0 0 1 1 1 1 0 0 0 0 0 0 0 0 0 0 0 0 0 0 0 0 0 0 0 0 0 -0 0 0 0 0 0 0 0
0 0 1 1 1 1 0 0 1 1 1 1 1 1 0 0 0 0 0 0 0 0 0 0 0 0 0 0 0 0 0 0 0 0 0 -0 0 0 0 0 0 0 0
0 0 1 1 1 1 1 0 0 1 1 0 1 1 0 0 0 0 0 0 0 0 0 0 0 0 0 0 0 0 0 0 0 0 0 -0 0 0 0 0 0 0 0
0 0 0 1 1 1 1 1 0 0 1 1 1 0 0 0 0 0 0 0 0 0 0 0 0 0 0 0 0 0 0 0 0 0 0 -0 0 0 0 0 0 0 0
0 0 0 0 0 0 0 0 0 0 0 0 0 0 0 0 0 0 0 0 0 0 0 0 0 0 0 0 0 0 0 0 0 0 0 -0 -0 0 0 0 0 0 0
0 0 0 0 0 0 0 0 0 0 0 0 0 0 0 0 0 0 0 0 0 0 0 0 0 0 0 0 0 0 0 0 0 0 0 -0 -0 -0 0 0 0 0 0
0 0 0 0 0 0 0 0 0 0 0 0 0 0 0 0 0 0 0 0 0 0 0 0 0 0 0 0 0 0 0 0 0 0 0 0 -0 -0 -0 -0 0 0 0
0 0 0 0 0 0 0 0 0 0 0 0 0 0 0 0 0 0 0 0 0 0 0 0 0 0 0 0 0 0 0 0 0 0 0 0 -0 -0 -0 -0 -0 0 0
0 0 0 0 0 0 0 0 0 0 0 0 0 0 0 0 0 0 0 0 0 0 0 0 0 0 0 0 0 0 0 0 0 0 0 0 0 0 0 0 -0 0 0
0 0 0 0 0 0 0 0 0 0 0 0 0 0 0 0 0 0 0 0 0 0 0 0 0 0 0 0 0 0 0 0 0 0 0 0 0 0 0 0 0 0 0
0 0 0 0 0 0 0 0 0 0 0 0 0 0 0 0 0 0 0 0 0 0 0 0 0 0 0 0 0 0 0 0 0 0 0 0 0 0 0 0 0 0 0
0 0 0 0 0 0 0 0 0 0 0 0 0 0 0 0 0 0 0 0 0 0 0 0 0 0 0 0 0 0 0 0 0 0 0 0 0 0 0 0 0 0 0
0 0 0 0 0 0 0 0 0 0 0 0 0 0 0 0 0 0 0 0 0 0 0 0 0 0 0 0 0 0 0 0 0 0 0 0 0 0 0 0 0 0 0
0 0 0 0 0 0 0 0 0 0 0 0 0 0 0 0 0 0 0 0 0 0 0 0 0 0 0 0 0 0 0 0 0 0 0 0 0 0 0 0 0 0 0
0 0 0 0 0 0 0 0 0 0 0 0 0 0 0 0 0 0 0 0 0 0 0 0 0 0 0 0 0 0 0 0 0 0 0 0 0 0 0 0 0 0 0
0 0 0 0 0 0 0 0 0 0 0 0 0 0 0 0 0 0 0 0 0 0 0 0 0 0 0 0 0 0 0 0 0 0 0 0 0 0 0 0 0 0 0
0 0 0 0 0 0 0 0 0 0 0 0 0 0 0 0 0 0 0 0 0 0 0 0 0 0 0 0 0 0 0 0 0 0 0 0 0 0 0 0 0 0 0
0 0 0 0 0 0 0 0 0 0 0 0 0 0 0 0 0 0 0 0 0 0 0 0 0 0 0 0 0 0 0 0 0 0 0 0 0 0 0 0 0 0 0
Wind_Speed_500mb
30 35 53 55 52 47 46 45 43 41 38 36 32 28 24 20 17 15 23 30 33 31 19 27 37 34 27 24 23 27 32 31 24 22 24 26 29 28 30 32 31 30 27
23 39 54 55 54 49 46 44 42 40 38 35 31 28 24 22 20 20 28 35 30 27 25 29 38 35 32 28 25 28 30 29 28 28 32 33 30 31 32 33 32 33 31
24 37 53 55 53 51 47 44 43 39 36 33 32 30 27 25 23 27 36 30 32 27 29 29 33 33 31 28 27 29 29 29 30 30 31 30 29 31 29 30 31 31 29
19 34 48 52 51 51 48 46 42 38 34 32 31 30 30 28 27 35 35 33 35 28 22 25 27 31 31 30 28 28 26 26 26 25 22 23 25 23 21 21 19 20 19
26 37 48 51 48 50 48 45 43 40 36 31 30 30 32 31 31 37 35 37 33 25 21 25 29 31 30 28 25 24 24 23 22 21 18 18 19 20 19 19 19 18 17
23 37 44 49 48 46 46 45 43 40 38 33 30 31 33 34 36 38 37 38 27 23 24 28 29 29 27 26 25 22 21 21 20 19 17 18 18 19 18 18 18 17 16
25 37 42 46 46 46 42 45 44 41 38 35 33 32 33 36 40 40 39 35 29 26 29 30 29 27 25 23 22 21 20 20 19 17 16 16 17 17 17 16 15 15 14
23 34 41 45 46 45 44 42 42 41 40 38 35 35 35 38 39 40 41 36 31 29 31 32 31 25 22 21 20 19 18 18 18 16 15 14 14 14 13 12 12 11 12
27 31 38 43 46 47 46 44 42 41 41 40 39 36 35 37 41 40 40 38 34 35 35 34 32 27 23 20 18 18 17 17 16 15 13 12 11 10 8 8 8 8 10
25 33 42 43 47 48 47 46 43 42 41 42 43 41 39 39 38 41 38 37 36 40 41 38 34 29 24 21 19 16 15 14 14 12 12 10 8 6 4 3 3 5 7
24 33 45 47 50 52 51 48 45 45 44 45 45 46 44 44 43 43 39 37 36 43 45 42 37 32 27 23 20 17 15 13 11 10 8 8 7 5 2 1 2 4 6
20 29 42 51 52 54 54 52 50 49 49 50 51 51 50 48 47 45 43 39 35 43 47 44 40 35 30 25 22 20 17 14 12 9 8 6 6 5 4 4 4 4 7
29 25 39 50 46 50 50 53 54 51 50 53 51 52 52 50 49 49 48 45 42 47 49 47 44 39 34 30 25 22 18 16 14 12 11 8 6 6 6 7 7 7 9
43 33 28 47 50 48 50 53 52 51 50 52 54 53 53 55 53 52 54 50 46 52 52 49 46 41 37 33 29 26 23 20 17 16 12 10 7 6 6 7 10 12 13
56 44 33 35 56 54 56 54 52 51 49 51 55 57 57 58 56 53 55 54 48 55 56 53 48 43 39 35 32 29 28 24 22 22 19 13 8 5 4 4 11 11 10
63 56 41 38 46 61 57 54 54 53 53 52 54 59 60 59 59 58 60 60 53 56 54 56 48 45 41 37 34 31 30 29 26 25 24 21 13 8 11 10 10 12 14
65 66 56 45 44 52 64 63 57 55 53 49 51 52 57 61 63 61 65 62 62 54 60 57 52 48 43 40 39 36 35 34 33 30 28 25 24 20 20 16 14 13 18
58 68 65 52 47 54 54 60 59 57 53 47 48 45 47 55 61 64 67 66 66 56 60 60 56 50 47 46 42 39 38 39 36 37 35 31 30 25 27 28 24 22 22
57 62 70 61 52 54 58 55 57 60 55 51 48 45 47 53 60 66 71 71 71 59 52 60 56 53 50 49 45 40 40 40 41 38 39 36 33 32 30 31 34 32 30
53 56 59 67 57 49 56 60 58 59 60 59 54 53 52 53 57 60 59 65 59 65 63 61 55 56 53 50 48 46 44 45 42 43 41 39 40 38 35 32 35 37 39
51 65 68 68 63 56 59 62 62 62 62 65 59 59 53 49 52 55 52 65 69 55 78 68 59 61 58 55 49 52 49 49 47 49 45 45 42 36 37 36 37 44 43
54 64 69 73 68 65 60 65 67 63 65 65 68 69 71 71 73 78 76 63 68 69 78 87 73 66 64 64 59 53 48 53 55 50 43 44 41 42 47 44 44 48 46
54 59 75 77 71 68 63 59 64 65 64 68 74 77 81 79 82 84 85 80 79 79 80 90 80 72 70 69 63 48 24 30 27 40 44 44 47 48 52 54 51 52 53
48 59 77 78 71 71 64 63 65 67 68 67 68 69 73 76 79 84 84 81 77 82 78 83 85 81 82 79 69 71 66 34 17 12 29 31 32 44 55 56 59 60 55
41 54 62 70 65 71 71 65 58 60 57 56 56 61 68 73 72 78 91 81 77 83 92 88 77 86 81 83 76 78 76 79 60 43 48 51 50 42 47 52 54 57 58
38 50 52 59 63 70 64 59 54 51 51 50 56 56 56 59 64 64 70 77 80 83 80 80 82 87 83 80 70 70 71 59 46 52 60 58 51 52 52 54 50 57 62
Wind_Direction_500mb
213 193 184 179 181 182 177 177 179 179 180 179 179 175 172 167 160 150 145 142 131 140 139 128 114 108 107 117 130 116 115 116 117 124 109 102 94 94 95 86 88 94 97
220 190 184 182 183 186 186 184 182 181 182 184 187 186 183 173 164 159 151 143 139 150 132 133 134 130 135 130 113 119 121 116 107 106 112 106 98 99 92 88 86 88 88
201 192 184 185 186 188 192 191 188 188 188 189 190 188 183 175 169 160 149 148 153 156 141 133 133 138 130 130 118 117 115 112 108 106 112 115 112 103 96 91 88 87 87
191 195 188 186 187 188 191 194 190 189 187 187 189 188 184 177 173 164 155 159 159 156 144 146 134 131 128 124 119 116 113 111 112 111 112 102 111 119 110 113 108 100 103
211 202 191 186 186 188 190 194 194 191 189 188 189 189 184 179 174 165 165 164 166 154 150 149 142 136 131 128 126 120 114 114 117 117 115 106 104 106 99 89 86 83 79
221 201 194 191 189 190 195 193 194 195 194 195 195 192 187 182 178 170 175 173 170 164 162 156 151 144 136 130 128 126 120 118 118 117 114 113 112 106 100 94 88 82 74
207 198 200 198 196 194 197 197 196 196 197 197 195 193 191 188 182 184 183 181 177 170 167 163 160 153 144 136 132 129 126 123 119 118 118 116 112 107 104 98 89 79 70
218 207 206 203 204 204 204 202 200 200 200 200 198 198 196 195 190 190 190 189 184 178 174 172 168 164 154 144 139 135 127 125 125 124 122 119 114 110 105 98 88 78 67
242 226 217 214 208 207 208 209 207 206 205 205 204 203 201 201 201 197 197 200 198 189 183 179 175 173 166 156 147 146 139 136 135 133 129 125 123 114 104 90 77 64 56
228 243 233 223 216 210 210 212 214 214 211 210 208 208 207 207 203 202 205 209 204 195 188 184 182 180 176 170 163 159 155 152 147 144 143 140 134 130 126 95 65 43 38
237 236 243 228 222 215 213 213 216 220 219 216 211 209 209 210 209 210 214 215 211 199 192 188 186 187 186 183 180 178 173 173 172 167 160 161 168 168 172 272 341 7 2
263 239 237 235 227 222 219 217 218 220 220 218 215 210 210 211 212 212 216 214 212 201 194 193 190 190 193 199 198 194 187 187 190 198 199 199 202 209 227 262 287 312 329
279 265 237 236 239 229 229 227 222 222 220 218 213 213 211 211 214 213 213 214 218 205 199 196 194 197 198 203 211 210 210 206 208 213 220 217 219 229 249 268 278 288 309
268 267 258 234 234 230 235 232 232 228 223 218 214 212 213 211 214 215 213 215 212 204 204 201 201 201 203 208 214 219 221 222 220 219 219 220 237 249 254 275 282 283 293
261 261 260 248 231 229 233 237 231 230 231 225 217 212 213 213 214 220 219 220 221 211 209 207 206 208 210 213 218 224 228 229 232 229 225 220 225 244 239 334 326 293 294
253 253 256 252 234 229 229 229 235 232 231 228 221 217 216 216 216 219 229 225 226 223 218 210 209 212 215 219 222 227 229 232 236 234 225 222 226 229 222 264 324 304 304
250 247 249 250 242 230 229 230 229 233 236 232 231 225 223 219 217 220 233 230 230 230 225 219 213 217 220 224 227 232 233 235 238 234 228 230 234 237 247 264 284 295 293
250 243 243 245 245 232 228 227 230 231 231 226 226 226 228 233 229 225 230 233 234 231 233 222 218 221 225 227 232 238 241 240 241 241 240 245 242 246 256 261 267 276 288
244 240 241 239 241 233 225 224 227 230 227 222 224 227 234 235 238 232 231 231 231 230 234 232 220 226 228 237 239 241 243 243 247 245 243 249 249 255 257 267 261 268 279
237 226 232 235 236 233 224 223 223 224 226 220 231 229 236 236 236 241 240 244 236 222 213 237 230 234 235 239 246 250 251 251 247 246 249 252 248 249 255 263 263 267 274
239 226 226 231 232 229 221 218 219 219 223 231 234 231 238 241 233 233 244 240 246 233 210 230 231 234 242 240 251 249 249 250 249 249 251 248 247 251 255 257 265 270 271
242 230 224 228 230 228 224 219 222 226 229 235 238 238 242 245 244 246 251 244 237 228 223 221 220 230 247 240 248 252 259 255 250 246 248 247 246 251 259 259 261 268 263
229 229 220 222 223 225 222 221 224 230 234 238 241 242 243 246 249 250 249 242 242 244 241 220 218 230 245 242 241 236 241 244 247 245 241 244 248 257 260 257 262 266 258
225 229 221 223 222 218 219 221 225 229 234 239 243 246 246 244 245 248 245 242 241 233 220 216 215 223 242 241 239 239 237 245 214 253 248 259 258 270 266 270 265 257 246
233 222 225 227 228 219 220 226 233 238 243 249 253 252 252 251 253 253 246 238 238 228 230 220 212 219 236 241 242 242 237 241 247 260 274 279 283 282 285 285 268 249 243
231 218 227 222 219 218 219 224 225 235 247 251 245 252 256 262 250 249 241 237 232 224 221 224 215 215 239 239 243 250 250 250 254 265 275 280 281 281 282 283 265 258 253
Wind_Speed_850mb
30 35 53 55 52 47 46 45 43 41 38 36 32 28 24 20 17 15 23 30 33 31 19 27 37 34 27 24 23 27 32 31 24 22 24 26 29 28 30 32 31 30 27
23 39 54 55 54 49 46 44 42 40 38 35 31 28 24 22 20 20 28 35 30 27 25 29 38 35 32 28 25 28 30 29 28 28 32 33 30 31 32 33 32 33 31
24 37 53 55 53 51 47 44 43 39 36 33 32 30 27 25 23 27 36 30 32 27 29 29 33 33 31 28 27 29 29 29 30 30 31 30 29 31 29 30 31 31 29
19 34 48 52 51 51 48 46 42 38 34 32 31 30 30 28 27 35 35 33 35 28 22 25 27 31 31 30 28 28 26 26 26 25 22 23 25 23 21 21 19 20 19
26 37 48 51 48 50 48 45 43 40 36 31 30 30 32 31 31 37 35 37 33 25 21 25 29 31 30 28 25 24 24 23 22 21 18 18 19 20 19 19 19 18 17
23 37 44 49 48 46 46 45 43 40 38 33 30 31 33 34 36 38 37 38 27 23 24 28 29 29 27 26 25 22 21 21 20 19 17 18 18 19 18 18 18 17 16
25 37 42 46 46 46 42 45 44 41 38 35 33 32 33 36 40 40 39 35 29 26 29 30 29 27 25 23 22 21 20 20 19 17 16 16 17 17 17 16 15 15 14
23 34 41 45 46 45 44 42 42 41 40 38 35 35 35 38 39 40 41 36 31 29 31 32 31 25 22 21 20 19 18 18 18 16 15 14 14 14 13 12 12 11 12
27 31 38 43 46 47 46 44 42 41 41 40 39 36 35 37 41 40 40 38 34 35 35 34 32 27 23 20 18 18 17 17 16 15 13 12 11 10 8 8 8 8 10
25 33 42 43 47 48 47 46 43 42 41 42 43 41 39 39 38 41 38 37 36 40 41 38 34 29 24 21 19 16 15 14 14 12 12 10 8 6 4 3 3 5 7
24 33 45 47 50 52 51 48 45 45 44 45 45 46 44 44 43 43 39 37 36 43 45 42 37 32 27 23 20 17 15 13 11 10 8 8 7 5 2 1 2 4 6
20 29 42 51 52 54 54 52 50 49 49 50 51 51 50 48 47 45 43 39 35 43 47 44 40 35 30 25 22 20 17 14 12 9 8 6 6 5 4 4 4 4 7
29 25 39 50 46 50 50 53 54 51 50 53 51 52 52 50 49 49 48 45 42 47 49 47 44 39 34 30 25 22 18 16 14 12 11 8 6 6 6 7 7 7 9
43 33 28 47 50 48 50 53 52 51 50 52 54 53 53 55 53 52 54 50 46 52 52 49 46 41 37 33 29 26 23 20 17 16 12 10 7 6 6 7 10 12 13
56 44 33 35 56 54 56 54 52 51 49 51 55 57 57 58 56 53 55 54 48 55 56 53 48 43 39 35 32 29 28 24 22 22 19 13 8 5 4 4 11 11 10
63 56 41 38 46 61 57 54 54 53 53 52 54 59 60 59 59 58 60 60 53 56 54 56 48 45 41 37 34 31 30 29 26 25 24 21 13 8 11 10 10 12 14
65 66 56 45 44 52 64 63 57 55 53 49 51 52 57 61 63 61 65 62 62 54 60 57 52 48 43 40 39 36 35 34 33 30 28 25 24 20 20 16 14 13 18
58 68 65 52 47 54 54 60 59 57 53 47 48 45 47 55 61 64 67 66 66 56 60 60 56 50 47 46 42 39 38 39 36 37 35 31 30 25 27 28 24 22 22
57 62 70 61 52 54 58 55 57 60 55 51 48 45 47 53 60 66 71 71 71 59 52 60 56 53 50 49 45 40 40 40 41 38 39 36 33 32 30 31 34 32 30
53 56 59 67 57 49 56 60 58 59 60 59 54 53 52 53 57 60 59 65 59 65 63 61 55 56 53 50 48 46 44 45 42 43 41 39 40 38 35 32 35 37 39
51 65 68 68 63 56 59 62 62 62 62 65 59 59 53 49 52 55 52 65 69 55 78 68 59 61 58 55 49 52 49 49 47 49 45 45 42 36 37 36 37 44 43
54 64 69 73 68 65 60 65 67 63 65 65 68 69 71 71 73 78 76 63 68 69 78 87 73 66 64 64 59 53 48 53 55 50 43 44 41 42 47 44 44 48 46
54 59 75 77 71 68 63 59 64 65 64 68 74 77 81 79 82 84 85 80 79 79 80 90 80 72 70 69 63 48 24 30 27 40 44 44 47 48 52 54 51 52 53
48 59 77 78 71 71 64 63 65 67 68 67 68 69 73 76 79 84 84 81 77 82 78 83 85 81 82 79 69 71 66 34 17 12 29 31 32 44 55 56 59 60 55
41 54 62 70 65 71 71 65 58 60 57 56 56 61 68 73 72 78 91 81 77 83 92 88 77 86 81 83 76 78 76 79 60 43 48 51 50 42 47 52 54 57 58
38 50 52 59 63 70 64 59 54 51 51 50 56 56 56 59 64 64 70 77 80 83 80 80 82 87 83 80 70 70 71 59 46 52 60 58 51 52 52 54 50 57 62
Wind_Direction_850mb
213 193 184 179 181 182 177 177 179 179 180 179 179 175 172 167 160 150 145 142 131 140 139 128 114 108 107 117 130 116 115 116 117 124 109 102 94 94 95 86 88 94 97
220 190 184 182 183 186 186 184 182 181 182 184 187 186 183 173 164 159 151 143 139 150 132 133 134 130 135 130 113 119 121 116 107 106 112 106 98 99 92 88 86 88 88
201 192 184 185 186 188 192 191 188 188 188 189 190 188 183 175 169 160 149 148 153 156 141 133 133 138 130 130 118 117 115 112 108 106 112 115 112 103 96 91 88 87 87
191 195 188 186 187 188 191 194 190 189 187 187 189 188 184 177 173 164 155 159 159 156 144 146 134 131 128 124 119 116 113 111 112 111 112 102 111 119 110 113 108 100 103
211 202 191 186 186 188 190 194 194 191 189 188 189 189 184 179 174 165 165 164 166 154 150 149 142 136 131 128 126 120 114 114 117 117 115 106 104 106 99 89 86 83 79
221 201 194 191 189 190 195 193 194 195 194 195 195 192 187 182 178 170 175 173 170 164 162 156 151 144 136 130 128 126 120 118 118 117 114 113 112 106 100 94 88 82 74
207 198 200 198 196 194 197 197 196 196 197 197 195 193 191 188 182 184 183 181 177 170 167 163 160 153 144 136 132 129 126 123 119 118 118 116 112 107 104 98 89 79 70
218 207 206 203 204 204 204 202 200 200 200 200 198 198 196 195 190 190 190 189 184 178 174 172 168 164 154 144 139 135 127 125 125 124 122 119 114 110 105 98 88 78 67
242 226 217 214 208 207 208 209 207 206 205 205 204 203 201 201 201 197 197 200 198 189 183 179 175 173 166 156 147 146 139 136 135 133 129 125 123 114 104 90 77 64 56
228 243 233 223 216 210 210 212 214 214 211 210 208 208 207 207 203 202 205 209 204 195 188 184 182 180 176 170 163 159 155 152 147 144 143 140 134 130 126 95 65 43 38
237 236 243 228 222 215 213 213 216 220 219 216 211 209 209 210 209 210 214 215 211 199 192 188 186 187 186 183 180 178 173 173 172 167 160 161 168 168 172 272 341 7 2
263 239 237 235 227 222 219 217 218 220 220 218 215 210 210 211 212 212 216 214 212 201 194 193 190 190 193 199 198 194 187 187 190 198 199 199 202 209 227 262 287 312 329
279 265 237 236 239 229 229 227 222 222 220 218 213 213 211 211 214 213 213 214 218 205 199 196 194 197 198 203 211 210 210 206 208 213 220 217 219 229 249 268 278 288 309
268 267 258 234 234 230 235 232 232 228 223 218 214 212 213 211 214 215 213 215 212 204 204 201 201 201 203 208 214 219 221 222 220 219 219 220 237 249 254 275 282 283 293
261 261 260 248 231 229 233 237 231 230 231 225 217 212 213 213 214 220 219 220 221 211 209 207 206 208 210 213 218 224 228 229 232 229 225 220 225 244 239 334 326 293 294
253 253 256 252 234 229 229 229 235 232 231 228 221 217 216 216 216 219 229 225 226 223 218 210 209 212 215 219 222 227 229 232 236 234 225 222 226 229 222 264 324 304 304
250 247 249 250 242 230 229 230 229 233 236 232 231 225 223 219 217 220 233 230 230 230 225 219 213 217 220 224 227 232 233 235 238 234 228 230 234 237 247 264 284 295 293
250 243 243 245 245 232 228 227 230 231 231 226 226 226 228 233 229 225 230 233 234 231 233 222 218 221 225 227 232 238 241 240 241 241 240 245 242 246 256 261 267 276 288
244 240 241 239 241 233 225 224 227 230 227 222 224 227 234 235 238 232 231 231 231 230 234 232 220 226 228 237 239 241 243 243 247 245 243 249 249 255 257 267 261 268 279
237 226 232 235 236 233 224 223 223 224 226 220 231 229 236 236 236 241 240 244 236 222 213 237 230 234 235 239 246 250 251 251 247 246 249 252 248 249 255 263 263 267 274
239 226 226 231 232 229 221 218 219 219 223 231 234 231 238 241 233 233 244 240 246 233 210 230 231 234 242 240 251 249 249 250 249 249 251 248 247 251 255 257 265 270 271
242 230 224 228 230 228 224 219 222 226 229 235 238 238 242 245 244 246 251 244 237 228 223 221 220 230 247 240 248 252 259 255 250 246 248 247 246 251 259 259 261 268 263
229 229 220 222 223 225 222 221 224 230 234 238 241 242 243 246 249 250 249 242 242 244 241 220 218 230 245 242 241 236 241 244 247 245 241 244 248 257 260 257 262 266 258
225 229 221 223 222 218 219 221 225 229 234 239 243 246 246 244 245 248 245 242 241 233 220 216 215 223 242 241 239 239 237 245 214 253 248 259 258 270 266 270 265 257 246
233 222 225 227 228 219 220 226 233 238 243 249 253 252 252 251 253 253 246 238 238 228 230 220 212 219 236 241 242 242 237 241 247 260 274 279 283 282 285 285 268 249 243
231 218 227 222 219 218 219 224 225 235 247 251 245 252 256 262 250 249 241 237 232 224 221 224 215 215 239 239 243 250 250 250 254 265 275 280 281 281 282 283 265 258 253